Regional Weather Roundup
Issued by NWS

Home | Current Version | Previous Version | Text Only | Print | Product List | Glossary On
Versions: 1 2 3 4 5 6 7 8 9 10 11 12 13 14 15 16 17 18 19 20 21 22 23 24 25 26 27 28 29 30 31 32 33 34 35 36 37 38 39 40 41 42 43 44 45 46 47 48 49 50
000
ASUS43 KTOP 220808
RWRKS

WEATHER ROUNDUP FOR KANSAS
NATIONAL WEATHER SERVICE GOODLAND KS
300 AM CDT SUN APR 22 2018

NOTE:  "FAIR" INDICATES FEW OR NO CLOUDS BELOW 12,000 FEET WITH NO
SIGNIFICANT WEATHER AND/OR OBSTRUCTIONS TO VISIBILITY.

KSZ001>006-013>018-027>032-041>047-220900-
NORTHWEST KANSAS

CITY           SKY/WX    TMP DP  RH WIND       PRES   REMARKS
GOODLAND       CLOUDY    39  38  96 CALM      30.19F FOG
HAYS           CLOUDY    42  41  96 N10       30.19S
HILL CITY      CLOUDY    42  41  96 N7        30.21F
RUSSELL        CLOUDY    43  43 100 N9        30.17F FOG
$$

KSZ061>065-074>080-084>089-220900-
SOUTHWEST KANSAS

CITY           SKY/WX    TMP DP  RH WIND       PRES   REMARKS
DODGE CITY     CLOUDY    42  40  92 N12       30.18S FOG
ELKHART        CLOUDY    42  42  99 NW5       30.21S
GARDEN CITY    CLOUDY    41  40  96 N8        30.20S
GREAT BEND     CLOUDY    42  41  96 N14       30.16F
LIBERAL        CLOUDY    41  40  96 N9        30.21S
PRATT          CLOUDY    41  39  93 N13       30.14S
$$

KSZ066>073-081>083-090>101-220900-
SOUTHEAST KANSAS

CITY           SKY/WX    TMP DP  RH WIND       PRES   REMARKS
CHANUTE        RAIN      48  46  93 N9        30.04F FOG
COFFEYVILLE    CLOUDY    48  47  96 N10       30.01F
HUTCHINSON     MOCLDY    44  43  96 N13       30.12F
MEDICINE LODGE   N/A     43  41  93 NW7       30.13S
NEWTON         LGT RAIN  43  42  97 N13       30.10F
PARSONS        LGT RAIN  48  47  96 N8        30.03F
WICHITA INTL   LGT RAIN  45  45 100 N13       30.09F
WICHITA JABRA  LGT RAIN  44  44 100 N14       30.08F
WICHITA MCCONL LGT RAIN  45  45  99 N14G20    30.08
WINFIELD       CLOUDY    45  45 100 N13       30.07F
$$

KSZ007>012-019>026-033>040-048>060-102>105-220900-
NORTHEAST KANSAS

CITY           SKY/WX    TMP DP  RH WIND       PRES   REMARKS
CONCORDIA      CLOUDY    43  40  89 N7        30.16F
EMPORIA        CLOUDY    45  42  89 NW6       30.07F
LAWRENCE       CLOUDY    54  31  41 NE14      30.09F
MANHATTAN      CLOUDY    47  41  80 N7        30.12F
MARYSVILLE     CLOUDY    45  37  76 N7        30.16S
OLATHE IND     CLOUDY    54  31  41 NE9       30.09F
OLATHE EXE     CLOUDY    53  30  41 NE10      30.08F
SALINA         CLOUDY    45  44  97 N10       30.14F
TOPEKA BILLARD CLOUDY    50  38  63 NE7       30.10F
TOPEKA FORBES  CLOUDY    51  37  58 N8        30.09F
$$




USA.gov is the U.S. government's official web portal to all federal, state and local government web resources and services.